Content
SEND FEEDBACK

Daily
Averages
Monthly
Summary
United States of America

BAYPORT, MINNESOTA


Home > North America > United States > Minnesota
Elevation: 743 feet     Latitude: 45 01N     Longitude: 092 46W

WEATHER
 
SELECT A DAY
Number of Records: 149,847;   Date Range: 6/9/08 - 7/21/14
 
SHARE

PRINT THIS DATA

[ ← Previous Day ]
WEATHER ALMANAC - JANUARY 31, 2013
[ Next Day → ]
[ °C ]   °F
Weather ElementAverageHighLow
Temperature1.6 °F8.6 °F (12:35 am)-7.6 °F (11:15 pm)
Dewpoint-6.8 °F1.4 °F (12:35 am)-16.6 °F (11:35 pm)
Humidity67.8 %85 % (2:15 am)60 % (7:15 pm)
Barometer29.99 in30.24 in (11:35 pm)29.74 in (12:35 am)
Wind Speed13.6 mph19.6 mph (9:15 am)
Wind Gust25.3 mph (9:15 am)
Weather ElementAverage
Visibility8.9 mi
Wind DirectionWNW (296.8 °)

Weather ElementTotal
Precipitation---
Heating Degree Days64.5 (Base 65)
Averaged from 69 records on January 31, 2013
WEATHER CONDITIONS BREAKOUT
WIND DIRECTION BREAKOUT
WEATHER BY HOUR - JANUARY 31, 2013
[ °C ]   °F
Local TimeTemperatureDewpointHumidityBarometerVisibilityWind DirectionWind SpeedGust SpeedPrecipitationEventsConditions
12:35 AM8.6 °F1.4 °F73 %29.74 in10.0 miWNW (290°)16.1 mph20.7 mphOvercast
12:55 AM8.6 °F1.4 °F73 %29.74 in10.0 miWNW (290°)13.8 mph18.4 mphOvercast
1:15 AM8.6 °F1.4 °F73 %29.75 in10.0 miWNW (290°)10.4 mphOvercast
1:35 AM6.8 °F-0.4 °F72 %29.76 in10.0 miWest (280°)12.7 mph18.4 mphOvercast
1:55 AM6.8 °F-0.4 °F72 %29.77 in7.0 miWNW (290°)11.5 mphOvercast
2:15 AM5.0 °F1.4 °F85 %29.77 in5.0 miWNW (290°)11.5 mph17.3 mphSnowLight Snow
2:35 AM5.0 °F-0.4 °F78 %29.77 in7.0 miWNW (300°)11.5 mphOvercast
2:55 AM5.0 °F-0.4 °F78 %29.77 in7.0 miWNW (300°)12.7 mphOvercast
3:15 AM5.0 °F-0.4 °F78 %29.77 in5.0 miWNW (290°)11.5 mphHaze
3:35 AM5.0 °F-0.4 °F78 %29.77 in10.0 miWNW (300°)11.5 mphOvercast
3:55 AM5.0 °F-0.4 °F78 %29.78 in10.0 miWNW (290°)8.1 mphOvercast
4:15 AM5.0 °F-0.4 °F78 %29.79 in10.0 miWNW (300°)16.1 mph20.7 mphOvercast
4:35 AM5.0 °F-2.2 °F72 %29.79 in10.0 miWNW (300°)10.4 mphOvercast
4:55 AM5.0 °F-4.0 °F66 %29.80 in10.0 miWNW (290°)13.8 mph20.7 mphOvercast
5:15 AM3.2 °F-4.0 °F72 %29.81 in10.0 miWNW (300°)15.0 mphOvercast
5:35 AM3.2 °F-4.0 °F72 %29.81 in10.0 miWNW (300°)16.1 mph21.9 mphOvercast
6:15 AM3.2 °F-4.0 °F72 %29.83 in10.0 miWNW (300°)12.7 mph18.4 mphOvercast
6:35 AM3.2 °F-4.0 °F72 %29.84 in10.0 miWNW (290°)9.2 mphOvercast
6:55 AM3.2 °F-4.0 °F72 %29.85 in10.0 miWNW (300°)15.0 mph19.6 mphOvercast
7:15 AM3.2 °F-4.0 °F72 %29.86 in10.0 miWNW (300°)11.5 mph15.0 mphOvercast
7:35 AM3.2 °F-4.0 °F72 %29.87 in10.0 miNW (310°)15.0 mph21.9 mphOvercast
7:55 AM3.2 °F-4.0 °F72 %29.88 in10.0 miWNW (290°)17.3 mph21.9 mphOvercast
8:15 AM3.2 °F-5.8 °F66 %29.89 in10.0 miWNW (290°)13.8 mph21.9 mphOvercast
8:35 AM1.4 °F-5.8 °F72 %29.90 in10.0 miWNW (300°)13.8 mph21.9 mphScattered Clouds
8:55 AM1.4 °F-5.8 °F72 %29.91 in10.0 miWNW (300°)13.8 mph18.4 mphScattered Clouds
9:15 AM1.4 °F-7.6 °F66 %29.92 in10.0 miWNW (300°)19.6 mph25.3 mphScattered Clouds
9:35 AM1.4 °F-7.6 °F66 %29.93 in10.0 miNW (310°)17.3 mph23.0 mphScattered Clouds
9:55 AM1.4 °F-7.6 °F66 %29.94 in10.0 miWNW (300°)16.1 mph21.9 mphScattered Clouds
10:15 AM1.4 °F-7.6 °F66 %29.96 in10.0 miWNW (290°)16.1 mph19.6 mphScattered Clouds
10:35 AM1.4 °F-7.6 °F66 %29.97 in10.0 miWNW (300°)17.3 mph20.7 mphMostly Cloudy
10:55 AM1.4 °F-5.8 °F72 %29.98 in4.0 miWNW (300°)16.1 mphHaze
11:15 AM1.4 °F-5.8 °F72 %29.98 in5.0 miNW (310°)16.1 mph20.7 mphHaze
11:35 AM1.4 °F-7.6 °F66 %29.99 in7.0 miWNW (300°)16.1 mph19.6 mphOvercast
11:55 AM1.4 °F-7.6 °F66 %29.99 in7.0 miNW (310°)15.0 mph23.0 mphOvercast
12:15 PM1.4 °F-5.8 °F72 %29.99 in4.0 miNW (310°)13.8 mph19.6 mphHaze
12:35 PM1.4 °F-7.6 °F66 %30.00 in4.0 miWNW (290°)15.0 mph23.0 mphHaze
12:55 PM1.4 °F-5.8 °F72 %30.01 in4.0 miWNW (300°)13.8 mph19.6 mphHaze
1:15 PM3.2 °F-7.6 °F61 %30.01 in7.0 miWNW (290°)13.8 mph21.9 mphOvercast
1:35 PM3.2 °F-7.6 °F61 %30.02 in5.0 miWNW (290°)15.0 mph20.7 mphHaze
1:55 PM3.2 °F-5.8 °F66 %30.02 in7.0 miNW (310°)16.1 mph20.7 mphOvercast
2:15 PM3.2 °F-7.6 °F61 %30.03 in10.0 miWNW (290°)18.4 mph23.0 mphOvercast
2:35 PM3.2 °F-7.6 °F61 %30.03 in7.0 miWNW (300°)17.3 mph20.7 mphOvercast
2:55 PM3.2 °F-5.8 °F66 %30.04 in5.0 miWNW (300°)19.6 mph25.3 mphHaze
3:15 PM3.2 °F-7.6 °F61 %30.05 in10.0 miWNW (300°)18.4 mph25.3 mphOvercast
3:35 PM3.2 °F-7.6 °F61 %30.06 in10.0 miWNW (300°)16.1 mph24.2 mphOvercast
3:55 PM3.2 °F-7.6 °F61 %30.07 in10.0 miWNW (300°)17.3 mph25.3 mphScattered Clouds
4:15 PM3.2 °F-7.6 °F61 %30.08 in10.0 miWNW (300°)13.8 mph19.6 mphScattered Clouds
4:35 PM3.2 °F-7.6 °F61 %30.09 in10.0 miWNW (290°)12.7 mphClear
4:55 PM1.4 °F-7.6 °F66 %30.10 in10.0 miWNW (300°)12.7 mphClear
5:15 PM1.4 °F-7.6 °F66 %30.11 in10.0 miWNW (290°)11.5 mphClear
5:35 PM1.4 °F-9.4 °F61 %30.12 in10.0 miWNW (290°)11.5 mph20.7 mphClear
5:55 PM1.4 °F-9.4 °F61 %30.13 in10.0 miWNW (290°)16.1 mphClear
6:15 PM1.4 °F-9.4 °F61 %30.14 in10.0 miWNW (290°)13.8 mph19.6 mphClear
6:35 PM-0.4 °F-9.4 °F66 %30.15 in10.0 miWNW (300°)11.5 mph23.0 mphClear
7:15 PM-0.4 °F-11.2 °F60 %30.16 in10.0 miWNW (300°)12.7 mph18.4 mphClear
7:35 PM-0.4 °F-11.2 °F60 %30.17 in10.0 miWNW (290°)11.5 mph18.4 mphClear
7:55 PM-0.4 °F-11.2 °F60 %30.18 in10.0 miWNW (300°)12.7 mphClear
8:15 PM-2.2 °F-11.2 °F66 %30.18 in10.0 miWNW (300°)10.4 mph18.4 mphClear
8:35 PM-2.2 °F-13.0 °F60 %30.19 in10.0 miWNW (290°)9.2 mph16.1 mphClear
8:55 PM-4.0 °F-13.0 °F65 %30.19 in10.0 miWNW (300°)10.4 mph17.3 mphClear
9:15 PM-4.0 °F-13.0 °F65 %30.20 in10.0 miWNW (290°)10.4 mphClear
9:35 PM-4.0 °F-13.0 °F65 %30.20 in10.0 miWNW (290°)10.4 mph17.3 mphClear
9:55 PM-4.0 °F-13.0 °F65 %30.21 in10.0 miWNW (290°)12.7 mph18.4 mphClear
10:15 PM-5.8 °F-14.8 °F65 %30.22 in10.0 miWNW (300°)10.4 mphClear
10:35 PM-5.8 °F-14.8 °F65 %30.22 in10.0 miWNW (300°)10.4 mphClear
10:55 PM-5.8 °F-14.8 °F65 %30.23 in10.0 miWNW (300°)10.4 mphClear
11:15 PM-7.6 °F-14.8 °F71 %30.23 in10.0 miWNW (300°)5.8 mphClear
11:35 PM-7.6 °F-16.6 °F65 %30.24 in10.0 miWNW (300°)15.0 mph19.6 mphClear
11:55 PM-7.6 °F-16.6 °F65 %30.24 in10.0 miWNW (300°)10.4 mphClear
Hourly data recorded from K21D, located miles away from Bayport, Minnesota







STORIES FROM OUR PARTNERS